Abilene, TX

5:12 PM CST on December 14, 2017 (GMT -0600)
Abilene Regional

Weather History for KABI - November, 2013

Change the Weather History Date:

Monday, November 11, 2013

  Actual Average Record
Temperature  
Mean Temperature 63 °F 57 °F  
Max Temperature 73 °F 68 °F 87 °F (1911)
Min Temperature 52 °F 45 °F 18 °F (1950)
Degree Days  
Heating Degree Days 2 9  
Month to date heating degree days 79 83  
Since 1 July heating degree days 158 187  
Cooling Degree Days 0 1  
Month to date cooling degree days 3 13  
Year to date cooling degree days 2712 2402  
Growing Degree Days 14 (Base 50)    
Moisture  
Dew Point 53 °F    
Average Humidity 71    
Maximum Humidity 93    
Minimum Humidity 49    
Precipitation  
Precipitation 0.00 in 0.06 in 0.42 in (1939)
Month to date precipitation 0.02 0.64  
Year to date precipitation 20.93 22.82  
Sea Level Pressure  
Sea Level Pressure 30.21 in    
Wind  
Wind Speed 6 mph (South)    
Max Wind Speed 14 mph    
Max Gust Speed 17 mph    
Visibility 8 miles    
Events      
T = Trace of Precipitation, MM = Missing Value Source: NWS Daily Summary

Daily Weather History Graph

Daily Weather History Graph

Search for Another Location

Airport or City:

Trip Planner

Search our weather history database for the weather conditions in past years. The results will help you decide how hot, cold, wet, or windy it might be!

Date:

Astronomy

Nov. 11, 2013 Rise Set
Actual Time 7:04 AM CST 5:40 PM CST
Civil Twilight 6:38 AM CST 6:06 PM CST
Nautical Twilight 6:09 AM CST 6:35 PM CST
Astronomical Twilight 5:40 AM CST 7:04 PM CST
Moon 2:03 PM CST (11/11) 1:11 AM CST (11/11)
Length of Visible Light 11h 27m
Length of Day
10h 35m
Waxing Gibbous, 66% of the Moon is Illuminated
Nov 11
Waxing Gibbous
Nov 17
Full
Nov 25
Last Quarter
Dec 2
New
Dec 9
First Quarter

Hourly Weather History & Observations

Time (CST) Temp. Dew Point Humidity Pressure Visibility Wind Dir Wind Speed Gust Speed Precip Events Conditions
12:52 AM 54.0 °F 52.0 °F 93% 30.21 in 7.0 mi SSE 8.1 mph - N/A   Clear
1:52 AM 53.1 °F 51.1 °F 93% 30.21 in 5.0 mi SSE 6.9 mph - N/A   Clear
2:52 AM 54.0 °F 52.0 °F 93% 30.20 in 7.0 mi South 6.9 mph - N/A   Clear
3:33 AM 53.6 °F 51.8 °F 94% 30.23 in 6.0 mi SSW 5.8 mph - N/A   Scattered Clouds
3:42 AM 55.4 °F 53.6 °F 94% 30.23 in 6.0 mi South 6.9 mph - N/A   Mostly Cloudy
3:52 AM 55.9 °F 54.0 °F 93% 30.19 in 7.0 mi South 8.1 mph - N/A   Overcast
4:20 AM 55.4 °F 53.6 °F 94% 30.23 in 7.0 mi SSW 12.7 mph - N/A   Overcast
4:52 AM 55.9 °F 54.0 °F 93% 30.19 in 4.0 mi South 5.8 mph - N/A   Overcast
5:52 AM 57.0 °F 55.0 °F 93% 30.20 in 4.0 mi South 5.8 mph - N/A   Overcast
6:52 AM 57.0 °F 55.0 °F 93% 30.22 in 5.0 mi South 6.9 mph - N/A   Overcast
7:52 AM 57.9 °F 55.0 °F 90% 30.23 in 6.0 mi SSW 6.9 mph - N/A   Overcast
8:06 AM 57.2 °F 55.4 °F 94% 30.27 in 8.0 mi South 3.5 mph - N/A   Overcast
8:42 AM 59.0 °F 55.4 °F 88% 30.27 in 10.0 mi SW 3.5 mph - N/A   Overcast
8:52 AM 60.1 °F 55.9 °F 86% 30.25 in 10.0 mi SSW 8.1 mph - N/A   Overcast
9:52 AM 61.0 °F 55.9 °F 83% 30.26 in 10.0 mi SW 6.9 mph - N/A   Overcast
10:52 AM 63.0 °F 55.0 °F 75% 30.25 in 10.0 mi SW 8.1 mph - N/A   Mostly Cloudy
11:41 AM 64.4 °F 55.4 °F 73% 30.27 in 10.0 mi WSW 8.1 mph - N/A   Mostly Cloudy
11:52 AM 66.9 °F 55.0 °F 66% 30.22 in 10.0 mi WSW 5.8 mph - N/A   Mostly Cloudy
12:52 PM 66.9 °F 54.0 °F 63% 30.19 in 10.0 mi SSW 10.4 mph - N/A   Mostly Cloudy
1:52 PM 72.0 °F 54.0 °F 53% 30.15 in 10.0 mi SSW 10.4 mph 16.1 mph N/A   Mostly Cloudy
1:59 PM 71.6 °F 53.6 °F 53% 30.19 in 10.0 mi South 11.5 mph - N/A   Mostly Cloudy
2:52 PM 72.0 °F 53.1 °F 51% 30.14 in 10.0 mi SSW 8.1 mph - N/A   Clear
3:52 PM 72.0 °F 52.0 °F 49% 30.13 in 10.0 mi South 8.1 mph - N/A   Clear
4:52 PM 71.1 °F 52.0 °F 51% 30.14 in 10.0 mi SSW 4.6 mph - N/A   Clear
5:52 PM 66.9 °F 52.0 °F 59% 30.14 in 10.0 mi South 4.6 mph - N/A   Clear
6:52 PM 62.1 °F 51.1 °F 67% 30.17 in 10.0 mi SE 5.8 mph - N/A   Clear
7:52 PM 59.0 °F 51.1 °F 75% 30.18 in 10.0 mi SE 4.6 mph - N/A   Clear
8:52 PM 55.9 °F 51.1 °F 84% 30.20 in 10.0 mi SSE 8.1 mph - N/A   Clear
9:52 PM 55.0 °F 51.1 °F 86% 30.23 in 10.0 mi Calm Calm - N/A   Clear
10:52 PM 59.0 °F 52.0 °F 78% 30.26 in 10.0 mi Calm Calm - N/A   Clear
11:52 PM 57.9 °F 52.0 °F 81% 30.27 in 10.0 mi Calm Calm - N/A   Partly Cloudy